Location: Zagreb
(45.8000°N, 16.0000°E)
Time: 15:46:43
(UTC+02:00)

X-37B - Visible Passes

Search period start: 26 June 2022 00:00
Search period end: 06 July 2022 00:00
Orbit: 326 x 345 km, 45.0° (Epoch: 25 June)

Date Brightness Start Highest point End Pass type
(mag) Time Alt. Az. Time Alt. Az. Time Alt. Az.
26 Jun 0.7 03:18:49 32° WSW 03:19:33 39° SSW 03:22:15 10° SE visible
27 Jun 1.8 03:40:16 20° SSW 03:40:16 20° SSW 03:42:02 10° SSE visible
27 Jun 2.3 21:38:05 10° S 21:39:12 12° SSE 21:40:11 10° SE visible
27 Jun 3.0 23:11:30 10° WSW 23:11:34 10° WSW 23:11:34 10° WSW visible
28 Jun 1.4 21:56:59 10° SSW 21:59:19 24° SSE 22:01:29 11° E visible
28 Jun 2.3 23:31:45 10° WSW 23:32:47 20° WSW 23:32:47 20° WSW visible
29 Jun 0.5 22:16:52 10° WSW 22:19:34 44° SSE 22:21:45 14° E visible
29 Jun 2.5 23:52:08 10° W 23:53:00 18° W 23:53:00 18° W visible
30 Jun 0.1 22:37:07 10° WSW 22:39:54 68° S 22:41:28 23° E visible
01 Jul 3.2 00:12:31 10° W 00:12:41 11° W 00:12:41 11° W visible
01 Jul 0.1 22:57:28 10° W 23:00:16 78° S 23:00:53 49° ESE visible
02 Jul 0.2 21:42:27 10° WSW 21:45:13 68° S 21:48:01 10° E visible
02 Jul 0.6 23:17:51 10° W 23:20:10 51° WSW 23:20:10 51° WSW visible
03 Jul 0.1 22:02:48 10° W 22:05:35 78° S 22:08:09 12° E visible
03 Jul 2.4 23:38:16 10° W 23:39:21 20° W 23:39:21 20° W visible
04 Jul 0.2 22:23:10 10° W 22:25:56 65° S 22:27:18 26° ESE visible
05 Jul 0.7 22:43:34 10° W 22:46:13 40° SSW 22:46:26 39° S visible
